Regional Weather Roundup
Issued by NWS

Home | Current Version | Previous Version | Text Only | Print | Product List | Glossary Off
Versions: 1 2 3 4 5 6 7 8 9 10 11 12 13 14 15 16 17 18 19 20 21 22 23 24 25 26 27 28 29 30 31 32 33 34 35 36 37 38 39 40 41 42 43 44 45 46 47 48 49 50

000
ASUS43 KLMK 271010
RWRKY
KENTUCKY REGIONAL WEATHER ROUNDUP
NATIONAL WEATHER SERVICE LOUISVILLE KY
600 AM EDT MON MAR 27 2017

NOTE "FAIR" INDICATES FEW OR NO CLOUDS BELOW 12,000 FEET
WITH NO SIGNIFICANT WEATHER AND/OR OBSTRUCTIONS TO VISIBILITY.

KYZ001>023-026-027-061>063-070>075-271100-
WESTERN AND SOUTH CENTRAL KENTUCKY

CITY           SKY/WX    TMP DP  RH WIND       PRES   REMARKS
PADUCAH        PTCLDY    51  48  89 E7        29.87F
HENDERSON      PTCLDY    48  45  87 CALM      29.92F
OWENSBORO      PTCLDY    51  48  89 E3        29.94S
HOPKINSVILLE   CLOUDY    51  51  98 CALM      29.92S
BOWLING GREEN  CLOUDY    50  48  93 CALM      29.94F
GLASGOW        PTCLDY   N/A N/A N/A E3        29.96S
$$

KYZ024-025-028>034-038-045-046-053-271100-
NORTH CENTRAL KENTUCKY

CITY           SKY/WX    TMP DP  RH WIND       PRES   REMARKS
LOUISVILLE/SDF CLOUDY    53  48  83 E3        29.96S
LOUISVILLE/LOU CLOUDY    51  47  86 CALM      29.96F
FORT KNOX      CLOUDY    48  48  99 CALM      29.94F
$$

KYZ035>037-039>044-047>052-055>060-089>105-271100-
NORTHEAST KENTUCKY

CITY           SKY/WX    TMP DP  RH WIND       PRES   REMARKS
LEXINGTON      CLOUDY    53  51  93 SE5       29.99R
COVINGTON      CLOUDY    45  45 100 S3        29.97R FOG
FRANKFORT      CLOUDY    52  48  86 CALM      29.97S
$$

KYZ054-064>069-076>088-106>120-271100-
SOUTHEAST KENTUCKY

CITY           SKY/WX    TMP DP  RH WIND       PRES   REMARKS
JACKSON        CLEAR     57  53  86 CALM      30.01R
LONDON         CLEAR     50  48  93 CALM      30.00R
SOMERSET       CLOUDY    48  48 100 CALM      30.00S
MIDDLESBORO    CLOUDY    47  47 100 CALM      30.03R
MONTICELLO     CLOUDY    47  46  97 VRB7      30.00S
$$




USA.gov is the U.S. government's official web portal to all federal, state and local government web resources and services.